This is the latest recevied weather packets stored in our database for station/object JF2ZGN-13. If no packets are shown the sender has not sent any weather packets the latest 10 day(s).
| Time | Temp. | Humidity | Pressure | Rain* | Wind** | Luminosity | Snow |
|---|---|---|---|---|---|---|---|
| 1787481860 | 20° C | 88% | 914.4 hPa | 0.25 mm | - | - | - |
| 1787481259 | 20° C | 88% | 914.3 hPa | 0.25 mm | - | - | - |
| 1787480659 | 20° C | 88% | 914.1 hPa | 0.25 mm | - | - | - |
| 1787480059 | 20° C | 87% | 914 hPa | 0.25 mm | - | - | - |
| 1787479458 | 20° C | 87% | 914 hPa | 0.25 mm | - | - | - |
| 1787478857 | 20° C | 87% | 913.5 hPa | 0.25 mm | - | - | - |
| 1787478257 | 20.56° C | 86% | 913.8 hPa | 0.25 mm | - | - | - |
| 1787477657 | 20.56° C | 86% | 913.6 hPa | 0.25 mm | - | - | - |
| 1787477056 | 20.56° C | 86% | 913.5 hPa | 0.25 mm | - | - | - |
| 1787476456 | 20.56° C | 85% | 913.5 hPa | 0.25 mm | - | - | - |
| 1787475855 | 21.11° C | 83% | 913.4 hPa | 0.25 mm | - | - | - |
| 1787475255 | 21.11° C | 84% | 913.4 hPa | 0.25 mm | - | - | - |
| 1787474654 | 21.67° C | 83% | 913.3 hPa | 0.25 mm | - | - | - |
| 1787474054 | 21.67° C | 83% | 913.3 hPa | 0.25 mm | - | - | - |
| 1787473453 | 21.67° C | 83% | 913.3 hPa | 0.25 mm | - | - | - |
| 1787472853 | 22.22° C | 83% | 913.3 hPa | 0.25 mm | - | - | - |
| 1787472253 | 22.78° C | 82% | 913.1 hPa | 0.25 mm | - | - | - |
| 1787471652 | 23.33° C | 82% | 913.2 hPa | 0.25 mm | - | - | - |
| 1787471054 | 23.33° C | 80% | 913.2 hPa | 0.25 mm | - | - | - |
| 1787470451 | 23.89° C | 81% | 913.3 hPa | 0.25 mm | - | - | - |
| 1787469850 | 23.33° C | 82% | 913.2 hPa | 0.25 mm | - | - | - |
| 1787469250 | 23.33° C | 83% | 913.4 hPa | 0.25 mm | - | - | - |
| 1787468650 | 22.78° C | 84% | 913.3 hPa | 0.25 mm | - | - | - |
| 1787468049 | 22.78° C | 86% | 913.4 hPa | 0.25 mm | - | - | - |
| 1787467449 | 22.78° C | 86% | 913.5 hPa | 0.25 mm | - | - | - |
* Rain since midnight (hover to see other rain measurements)
** Current wind speed in m/s (hover to see current wind gust speed)